| time (UTC) | temp F | wind direction | speed knots | gust knots | rain 1hr in | rain 24hr in | rain mn in | humidity % | barometer mb |
| 20260504110503 | 80 | 250 | 0.9 | 4.3 | 0.00 | 0.00 | 0.00 | 33 | 1016.7 |
| 20260504100503 | 76 | 134 | 0.9 | 2.6 | 0.00 | 0.00 | 0.00 | 36 | 1017.3 |
| 20260504082002 | 73 | 340 | 0.9 | 1.7 | 0.00 | 0.00 | 0.00 | 40 | 1017.6 |
| 20260504081502 | 72 | 166 | 0.9 | 5.2 | 0.00 | 0.00 | 0.00 | 40 | 1017.6 |
| 20260504081004 | 72 | 279 | 0.9 | 2.6 | 0.00 | 0.00 | 0.00 | 40 | 1017.7 |
| 20260504080502 | 71 | 113 | 0.9 | 2.6 | 0.00 | 0.00 | 0.00 | 41 | 1017.9 |
| 20260504050504 | 57 | 130 | 0.0 | 0.0 | 0.00 | 0.00 | 0.00 | 63 | 1017.5 |
| 20260504050003 | 56 | 130 | 0.0 | 0.0 | 0.00 | 0.00 | 0.00 | 62 | 1017.5 |
| 20260504045503 | 56 | 130 | 0.0 | 0.0 | 0.00 | 0.00 | 0.00 | 62 | 1017.4 |
| 20260504045004 | 56 | 130 | 0.0 | 0.0 | 0.00 | 0.00 | 0.00 | 61 | 1017.4 |
| 20260504044504 | 56 | 130 | 0.0 | 0.0 | 0.00 | 0.00 | 0.00 | 59 | 1017.4 |
| 20260504044004 | 56 | 130 | 0.0 | 0.0 | 0.00 | 0.00 | 0.00 | 60 | 1017.4 |
| 20260504043502 | 56 | 130 | 0.0 | 0.0 | 0.00 | 0.00 | 0.00 | 58 | 1017.3 |
| 20260504043002 | 55 | 130 | 0.0 | 0.0 | 0.00 | 0.00 | 0.00 | 60 | 1017.3 |
| 20260504042503 | 54 | 130 | 0.0 | 0.9 | 0.00 | 0.00 | 0.00 | 61 | 1017.3 |
| 20260504042002 | 54 | 130 | 0.0 | 0.0 | 0.00 | 0.00 | 0.00 | 62 | 1017.4 |
| 20260504041505 | 53 | 130 | 0.0 | 0.0 | 0.00 | 0.00 | 0.00 | 62 | 1017.3 |
| 20260504041004 | 53 | 130 | 0.0 | 0.0 | 0.00 | 0.00 | 0.00 | 64 | 1017.3 |
| 20260504040502 | 52 | 130 | 0.0 | 0.9 | 0.00 | 0.00 | 0.00 | 65 | 1017.2 |
| 20260504040004 | 52 | 130 | 0.0 | 0.0 | 0.00 | 0.00 | 0.00 | 66 | 1017.3 |
| 20260504035502 | 52 | 130 | 0.0 | 0.0 | 0.00 | 0.00 | 0.00 | 66 | 1017.4 |
| 20260504035003 | 52 | 130 | 0.0 | 0.0 | 0.00 | 0.00 | 0.00 | 65 | 1017.5 |
| 20260504034505 | 52 | 130 | 0.0 | 0.0 | 0.00 | 0.00 | 0.00 | 63 | 1017.2 |
| 20260504034003 | 52 | 130 | 0.0 | 0.9 | 0.00 | 0.00 | 0.00 | 62 | 1017.2 |
| 20260504033505 | 52 | 130 | 0.0 | 0.0 | 0.00 | 0.00 | 0.00 | 64 | 1017.5 |
| 20260504033002 | 53 | 130 | 0.0 | 0.0 | 0.00 | 0.00 | 0.00 | 62 | 1017.4 |
| 20260504032504 | 53 | 130 | 0.0 | 0.0 | 0.00 | 0.00 | 0.00 | 62 | 1017.2 |
| 20260504032004 | 53 | 130 | 0.0 | 0.0 | 0.00 | 0.00 | 0.00 | 60 | 1017.2 |
| 20260504031504 | 54 | 130 | 0.0 | 0.0 | 0.00 | 0.00 | 0.00 | 59 | 1017.2 |
| 20260504031003 | 55 | 130 | 0.0 | 0.0 | 0.00 | 0.00 | 0.00 | 57 | 1017.1 |
| 20260504030504 | 56 | 130 | 0.0 | 0.0 | 0.00 | 0.00 | 0.00 | 56 | 1017.0 |
| 20260504030003 | 57 | 130 | 0.0 | 0.0 | 0.00 | 0.00 | 0.00 | 53 | 1016.8 |
| 20260504025505 | 57 | 130 | 0.0 | 0.0 | 0.00 | 0.00 | 0.00 | 50 | 1016.6 |
| 20260504025003 | 58 | 130 | 0.0 | 0.0 | 0.00 | 0.00 | 0.00 | 49 | 1016.4 |
| 20260504024502 | 58 | 131 | 0.9 | 0.9 | 0.00 | 0.00 | 0.00 | 49 | 1016.5 |
| 20260504024003 | 58 | 131 | 0.0 | 0.0 | 0.00 | 0.00 | 0.00 | 48 | 1016.4 |
| 20260504023503 | 59 | 131 | 0.0 | 0.0 | 0.00 | 0.00 | 0.00 | 48 | 1016.4 |
| 20260504023004 | 59 | 129 | 0.0 | 0.0 | 0.00 | 0.00 | 0.00 | 47 | 1016.5 |
| 20260504022504 | 60 | 130 | 0.0 | 0.9 | 0.00 | 0.00 | 0.00 | 46 | 1016.5 |
| 20260504022002 | 60 | 113 | 0.9 | 1.7 | 0.00 | 0.00 | 0.00 | 45 | 1016.6 |
| 20260504021504 | 61 | 122 | 0.9 | 5.2 | 0.00 | 0.00 | 0.00 | 45 | 1016.5 |
| 20260504021003 | 61 | 131 | 0.0 | 2.6 | 0.00 | 0.00 | 0.00 | 44 | 1016.4 |
| 20260504020503 | 61 | 150 | 0.9 | 4.3 | 0.00 | 0.00 | 0.00 | 44 | 1016.3 |
| 20260504020004 | 61 | 127 | 0.9 | 2.6 | 0.00 | 0.00 | 0.00 | 44 | 1016.7 |
| 20260504015502 | 61 | 128 | 1.7 | 4.3 | 0.00 | 0.00 | 0.00 | 43 | 1016.5 |
| 20260504015005 | 61 | 133 | 0.9 | 4.3 | 0.00 | 0.00 | 0.00 | 44 | 1016.4 |
| 20260504014503 | 62 | 129 | 0.9 | 0.9 | 0.00 | 0.00 | 0.00 | 43 | 1016.6 |
| 20260504014005 | 62 | 165 | 1.7 | 2.6 | 0.00 | 0.00 | 0.00 | 43 | 1016.4 |
| 20260504013503 | 62 | 164 | 0.9 | 6.1 | 0.00 | 0.00 | 0.00 | 43 | 1016.4 |
| 20260504013003 | 62 | 133 | 0.9 | 1.7 | 0.00 | 0.00 | 0.00 | 43 | 1016.6 |
| 20260504012504 | 62 | 182 | 0.9 | 2.6 | 0.00 | 0.00 | 0.00 | 43 | 1016.4 |
| 20260504012003 | 62 | 109 | 0.0 | 1.7 | 0.00 | 0.00 | 0.00 | 42 | 1016.4 |
| 20260504011503 | 62 | 121 | 0.9 | 2.6 | 0.00 | 0.00 | 0.00 | 42 | 1016.4 |
| 20260504011004 | 63 | 188 | 2.6 | 4.3 | 0.00 | 0.00 | 0.00 | 42 | 1016.3 |
| 20260504010504 | 62 | 164 | 1.7 | 1.7 | 0.00 | 0.00 | 0.00 | 42 | 1016.5 |
| 20260504010002 | 62 | 189 | 0.9 | 2.6 | 0.00 | 0.00 | 0.00 | 43 | 1016.4 |
| 20260504005503 | 62 | 112 | 0.9 | 2.6 | 0.00 | 0.00 | 0.00 | 42 | 1016.5 |
| 20260504005004 | 62 | 165 | 0.9 | 4.3 | 0.00 | 0.00 | 0.00 | 42 | 1016.4 |
| 20260504004503 | 63 | 160 | 1.7 | 2.6 | 0.00 | 0.00 | 0.00 | 42 | 1016.3 |
| 20260504004003 | 62 | 150 | 0.9 | 1.7 | 0.00 | 0.00 | 0.00 | 42 | 1016.4 |
| 20260504003503 | 63 | 142 | 0.9 | 5.2 | 0.00 | 0.00 | 0.00 | 42 | 1016.3 |
| 20260504003003 | 63 | 124 | 1.7 | 1.7 | 0.00 | 0.00 | 0.00 | 42 | 1016.5 |
| 20260504002504 | 63 | 143 | 0.9 | 5.2 | 0.00 | 0.00 | 0.00 | 42 | 1016.6 |
| 20260504002003 | 63 | 164 | 1.7 | 2.6 | 0.00 | 0.00 | 0.00 | 42 | 1016.5 |
| 20260504001505 | 63 | 155 | 3.5 | 6.1 | 0.00 | 0.00 | 0.00 | 42 | 1016.4 |
| 20260504001004 | 63 | 157 | 3.5 | 5.2 | 0.00 | 0.00 | 0.00 | 42 | 1016.6 |
| 20260504000503 | 64 | 156 | 0.9 | 4.3 | 0.00 | 0.00 | 0.00 | 42 | 1016.7 |
| 20260504000003 | 64 | 167 | 1.7 | 2.6 | 0.00 | 0.00 | 0.00 | 42 | 1016.4 |
| 20260503235503 | 64 | 203 | 2.6 | 5.2 | 0.00 | 0.00 | 0.00 | 41 | 1016.6 |
| 20260503235003 | 64 | 164 | 2.6 | 4.3 | 0.00 | 0.00 | 0.00 | 41 | 1016.9 |
| 20260503234503 | 65 | 153 | 3.5 | 5.2 | 0.00 | 0.00 | 0.00 | 40 | 1016.9 |
| 20260503234003 | 65 | 172 | 4.3 | 6.1 | 0.00 | 0.00 | 0.00 | 40 | 1016.7 |
| 20260503233502 | 65 | 191 | 2.6 | 8.7 | 0.00 | 0.00 | 0.00 | 41 | 1016.9 |
| 20260503233004 | 65 | 149 | 2.6 | 6.1 | 0.00 | 0.00 | 0.00 | 40 | 1016.9 |
| 20260503232503 | 65 | 147 | 2.6 | 6.1 | 0.00 | 0.00 | 0.00 | 40 | 1016.9 |
| 20260503232002 | 65 | 163 | 2.6 | 5.2 | 0.00 | 0.00 | 0.00 | 40 | 1017.0 |
| 20260503231504 | 65 | 180 | 3.5 | 4.3 | 0.00 | 0.00 | 0.00 | 41 | 1017.0 |
| 20260503231003 | 65 | 196 | 2.6 | 7.8 | 0.00 | 0.00 | 0.00 | 41 | 1016.9 |
| 20260503230503 | 65 | 176 | 3.5 | 4.3 | 0.00 | 0.00 | 0.00 | 41 | 1017.0 |
| 20260503230003 | 65 | 202 | 2.6 | 4.3 | 0.00 | 0.00 | 0.00 | 41 | 1017.0 |
| 20260503225504 | 65 | 192 | 4.3 | 7.8 | 0.00 | 0.00 | 0.00 | 40 | 1017.1 |
| 20260503225004 | 66 | 181 | 1.7 | 4.3 | 0.00 | 0.00 | 0.00 | 40 | 1017.0 |
| 20260503224502 | 66 | 194 | 2.6 | 6.1 | 0.00 | 0.00 | 0.00 | 40 | 1017.2 |
| 20260503224003 | 66 | 182 | 2.6 | 7.0 | 0.00 | 0.00 | 0.00 | 40 | 1017.1 |
| 20260503223503 | 66 | 180 | 3.5 | 7.8 | 0.00 | 0.00 | 0.00 | 40 | 1017.2 |
| 20260503223002 | 66 | 205 | 4.3 | 5.2 | 0.00 | 0.00 | 0.00 | 40 | 1017.1 |
| 20260503222503 | 65 | 156 | 3.5 | 7.8 | 0.00 | 0.00 | 0.00 | 40 | 1017.2 |
| 20260503222003 | 66 | 160 | 1.7 | 5.2 | 0.00 | 0.00 | 0.00 | 41 | 1017.0 |
| 20260503221503 | 66 | 214 | 2.6 | 8.7 | 0.00 | 0.00 | 0.00 | 40 | 1017.2 |
| 20260503221004 | 66 | 45 | 1.7 | 7.0 | 0.00 | 0.00 | 0.00 | 40 | 1017.1 |
| 20260503220505 | 66 | 191 | 2.6 | 6.1 | 0.00 | 0.00 | 0.00 | 40 | 1017.3 |
| 20260503220003 | 66 | 196 | 2.6 | 5.2 | 0.00 | 0.00 | 0.00 | 40 | 1017.1 |
| 20260503215503 | 66 | 139 | 1.7 | 6.1 | 0.00 | 0.00 | 0.00 | 39 | 1017.4 |
| 20260503215002 | 66 | 194 | 3.5 | 5.2 | 0.00 | 0.00 | 0.00 | 39 | 1017.2 |
| 20260503214503 | 66 | 185 | 3.5 | 5.2 | 0.00 | 0.00 | 0.00 | 40 | 1017.5 |
| 20260503214003 | 66 | 146 | 0.9 | 7.0 | 0.00 | 0.00 | 0.00 | 39 | 1017.5 |
| 20260503213503 | 67 | 170 | 3.5 | 7.0 | 0.00 | 0.00 | 0.00 | 39 | 1017.4 |
| 20260503213002 | 66 | 162 | 2.6 | 2.6 | 0.00 | 0.00 | 0.00 | 39 | 1017.5 |
| 20260503212504 | 66 | 209 | 2.6 | 4.3 | 0.00 | 0.00 | 0.00 | 39 | 1017.3 |
| 20260503212004 | 67 | 194 | 3.5 | 4.3 | 0.00 | 0.00 | 0.00 | 39 | 1017.3 |
| 20260503211503 | 67 | 137 | 1.7 | 5.2 | 0.00 | 0.00 | 0.00 | 39 | 1017.3 |
| 20260503211004 | 67 | 136 | 0.9 | 4.3 | 0.00 | 0.00 | 0.00 | 40 | 1017.5 |
| 20260503210504 | 67 | 122 | 1.7 | 2.6 | 0.00 | 0.00 | 0.00 | 39 | 1017.6 |
| 20260503210004 | 67 | 171 | 2.6 | 5.2 | 0.00 | 0.00 | 0.00 | 39 | 1017.5 |
| 20260503205503 | 67 | 150 | 0.0 | 4.3 | 0.00 | 0.00 | 0.00 | 39 | 1017.6 |
| 20260503205003 | 67 | 177 | 4.3 | 5.2 | 0.00 | 0.00 | 0.00 | 39 | 1017.4 |
| 20260503204504 | 68 | 173 | 4.3 | 6.1 | 0.00 | 0.00 | 0.00 | 38 | 1017.6 |
| 20260503204002 | 68 | 146 | 1.7 | 2.6 | 0.00 | 0.00 | 0.00 | 38 | 1017.6 |
| 20260503203504 | 68 | 171 | 2.6 | 5.2 | 0.00 | 0.00 | 0.00 | 38 | 1017.7 |
| 20260503203002 | 68 | 122 | 2.6 | 4.3 | 0.00 | 0.00 | 0.00 | 38 | 1017.5 |
| 20260503202503 | 68 | 236 | 2.6 | 4.3 | 0.00 | 0.00 | 0.00 | 37 | 1017.5 |
| 20260503202003 | 68 | 181 | 3.5 | 4.3 | 0.00 | 0.00 | 0.00 | 37 | 1017.4 |
| 20260503201502 | 69 | 165 | 1.7 | 6.1 | 0.00 | 0.00 | 0.00 | 37 | 1017.4 |
| 20260503201002 | 69 | 135 | 0.9 | 4.3 | 0.00 | 0.00 | 0.00 | 37 | 1017.6 |
| 20260503200503 | 69 | 264 | 3.5 | 5.2 | 0.00 | 0.00 | 0.00 | 36 | 1017.5 |
| 20260503200004 | 69 | 184 | 3.5 | 4.3 | 0.00 | 0.00 | 0.00 | 36 | 1017.4 |
| 20260503195505 | 70 | 153 | 1.7 | 5.2 | 0.00 | 0.00 | 0.00 | 35 | 1017.5 |
| 20260503195005 | 70 | 204 | 1.7 | 7.0 | 0.00 | 0.00 | 0.00 | 35 | 1017.4 |
| 20260503194505 | 70 | 101 | 0.9 | 6.1 | 0.00 | 0.00 | 0.00 | 34 | 1017.4 |
| 20260503194002 | 70 | 204 | 3.5 | 6.1 | 0.00 | 0.00 | 0.00 | 34 | 1017.5 |
| 20260503193503 | 70 | 103 | 0.0 | 4.3 | 0.00 | 0.00 | 0.00 | 34 | 1017.2 |
| 20260503193003 | 71 | 146 | 0.9 | 4.3 | 0.00 | 0.00 | 0.00 | 33 | 1017.4 |
| 20260503192502 | 71 | 182 | 2.6 | 4.3 | 0.00 | 0.00 | 0.00 | 32 | 1017.4 |
| 20260503192004 | 71 | 134 | 4.3 | 6.1 | 0.00 | 0.00 | 0.00 | 32 | 1017.4 |
| 20260503191510 | 72 | 233 | 1.7 | 2.6 | 0.00 | 0.00 | 0.00 | 32 | 1017.2 |
| 20260503191002 | 72 | 147 | 0.9 | 5.2 | 0.00 | 0.00 | 0.00 | 31 | 1017.2 |
| 20260503190504 | 72 | 197 | 0.9 | 7.8 | 0.00 | 0.00 | 0.00 | 31 | 1017.1 |
| 20260503190003 | 72 | 176 | 2.6 | 7.0 | 0.00 | 0.00 | 0.00 | 31 | 1017.2 |
| 20260503185504 | 73 | 197 | 2.6 | 7.0 | 0.00 | 0.00 | 0.00 | 30 | 1017.1 |
| 20260503185004 | 73 | 198 | 2.6 | 5.2 | 0.00 | 0.00 | 0.00 | 30 | 1017.1 |
| 20260503184503 | 73 | 205 | 3.5 | 7.0 | 0.00 | 0.00 | 0.00 | 30 | 1017.1 |
| 20260503184002 | 73 | 223 | 2.6 | 5.2 | 0.00 | 0.00 | 0.00 | 30 | 1016.9 |
| 20260503183505 | 73 | 173 | 6.1 | 8.7 | 0.00 | 0.00 | 0.00 | 30 | 1017.1 |
| 20260503183002 | 73 | 173 | 3.5 | 6.1 | 0.00 | 0.00 | 0.00 | 30 | 1016.9 |
| 20260503182503 | 74 | 191 | 4.3 | 7.0 | 0.00 | 0.00 | 0.00 | 30 | 1016.8 |
| 20260503182002 | 74 | 180 | 4.3 | 6.1 | 0.00 | 0.00 | 0.00 | 30 | 1016.8 |
| 20260503181504 | 74 | 172 | 0.9 | 4.3 | 0.00 | 0.00 | 0.00 | 30 | 1017.0 |
| 20260503181004 | 74 | 183 | 3.5 | 6.1 | 0.00 | 0.00 | 0.00 | 30 | 1016.7 |
| 20260503180505 | 75 | 198 | 3.5 | 6.1 | 0.00 | 0.00 | 0.00 | 30 | 1016.9 |
| 20260503180004 | 75 | 147 | 0.9 | 4.3 | 0.00 | 0.00 | 0.00 | 30 | 1016.7 |
| 20260503175503 | 75 | 138 | 0.9 | 1.7 | 0.00 | 0.00 | 0.00 | 30 | 1016.6 |
| 20260503175003 | 76 | 199 | 4.3 | 6.1 | 0.00 | 0.00 | 0.00 | 29 | 1016.7 |
| 20260503174504 | 76 | 139 | 2.6 | 6.1 | 0.00 | 0.00 | 0.00 | 29 | 1016.7 |
| 20260503174004 | 76 | 165 | 2.6 | 5.2 | 0.00 | 0.00 | 0.00 | 28 | 1016.7 |
| 20260503173503 | 77 | 145 | 0.9 | 5.2 | 0.00 | 0.00 | 0.00 | 28 | 1016.6 |
| 20260503173002 | 77 | 172 | 1.7 | 5.2 | 0.00 | 0.00 | 0.00 | 28 | 1016.6 |
| 20260503172503 | 77 | 183 | 2.6 | 7.8 | 0.00 | 0.00 | 0.00 | 27 | 1016.7 |
| 20260503172003 | 78 | 144 | 3.5 | 6.1 | 0.00 | 0.00 | 0.00 | 27 | 1016.6 |
| 20260503171505 | 78 | 204 | 6.1 | 8.7 | 0.00 | 0.00 | 0.00 | 27 | 1016.7 |
| 20260503171003 | 78 | 177 | 4.3 | 7.8 | 0.00 | 0.00 | 0.00 | 26 | 1016.6 |
| 20260503170504 | 78 | 141 | 2.6 | 7.8 | 0.00 | 0.00 | 0.00 | 27 | 1016.5 |
| 20260503151005 | 81 | 156 | 2.6 | 7.8 | 0.00 | 0.00 | 0.00 | 25 | 1017.1 |
| 20260503150504 | 82 | 182 | 2.6 | 7.8 | 0.00 | 0.00 | 0.00 | 25 | 1017.1 |
| 20260503131005 | 81 | 212 | 6.1 | 8.7 | 0.00 | 0.00 | 0.00 | 25 | 1018.3 |
| 20260503130505 | 82 | 195 | 5.2 | 8.7 | 0.00 | 0.00 | 0.00 | 25 | 1018.4 |